Погода в Баканасе

Погода в Баканасе : погода сейчас, прогноз погоды и архив. Всё, что Вы хотите узнать о погоде в Баканасе!

Хотите узнать прогноз погоды в Баканасе? Тогда Вам сюда: Погода в Баканасе

Поиск расширенной информации на нашем сайте:

Другие новости

Новости СМИ2

Главная страница сайта

Новости сайта

03.07.2017

Напоминаем, что на нашем специализированном сайте Метеоцентр.Азия вы можете получить высокодетализированные автоматические прогнозы погоды по пунктам России, СНГ и мира в авиационном формате (включающие направление и скорость ветра, видимость, явления погоды, количество и форму облачности, нижнюю и верхнюю границу облачности).

Рекомендуем: hex коды Bram Stoker's Dracula

Погода в Баканасе - сегодня

Время (UTC), дата Ветер
(°,м/с) 
Видим.   Явления Облачность Т
(°С)
Тd
(°С)
f(%) Тe
(°С)
Pmin
(гПа)
dP
(гПа)
Po
(мм)
O2
(г/м3)
Тmin Tmax R s Состояние
почвы
18 13.12.17 030 (СВ) н/о  дымка  ясно 
-14.6 -16.4 86 -17  1039.7  0.6  740  317    -4.3  0.0     
21 13.12.17 040 (СВ) н/о    ясно 
-15.9 -18 84 -20  1039.6  -0.4  740  318           
00 14.12.17 020 (С) 3{09}  н/о    ясно 
-17.5 -19.6 84 -21  1040.1  0.2  740  320           
03 14.12.17 040 (СВ) 4000 м  слаб. снег  10/0 верхняя 
[Cs]
-16.5 -18.3 86 -20  1041.1  1.2  741  319        сухой снег
50-90% 
06 14.12.17 010 (С) 20000 м  {снег}  1/0 верхняя 
[Ci sp]
-11.8 -14.3 82 -15  1040.8  0.6  742  314  -1.7    0.0     
09 14.12.17 030 (СВ) 20000 м    9/9 1000 м 
[Sc]
-7.8 -11.3 76 -11  1039.4  -0.6  741  308           
12 14.12.17 040 (СВ) н/о    9/9 1000 м 
[Sc]
-11.2 -14.4 77 -15  1041  0.9  742  313           
15 14.12.17 050 (СВ) н/о  слаб. снег  9/8 1000 м средняя 
[Sc|Ac trans]
-9.4 -11.9 82 -12  1040.4  -0.2  742  311    -7  0.0     
18 14.12.17 070 (В) н/о  слаб. снег  9/9 1000 м 
[Sc]
-10.1 -12.7 81 -12  1040.1  -0.4  741  311    -7  0.0     
21 14.12.17 тихо ()   н/о  слаб. снег  9/9 1000 м 
[Sc]
-9.9 -12 85 -10  1039.4  -0.7  741  311           
00 15.12.17 060 (СВ) 3{09}  н/о  слаб. снег  9/9 1000 м 
[Sc]
-10.4 -11.9 89 -13  1038.7  -0.7  740  311           
03 15.12.17 140 (ЮВ) 4000 м  слаб. снег  10/10 600 м 
[Ns]
-9.8 -11 91 -12  1039.1  0.4  741  311  -10.5      равномерный
сухой снег
100% 
06 15.12.17 040 (СВ) 4000 м  слаб. снег  10/10 600 м 
[Ns]
-8.5 -10.4 86 -8  1038.9  0.1  741  309  -10.5    0.0     
09 15.12.17 020 (С) 20000 м  {снег}  10/10 600 м 
[Ns]
-7.3 -9.8 82 -9  1037.8  -0.8  740  307           
12 15.12.17 360 (С) н/о  слаб. снег  10/10 600 м 
[Ns]
-8.4 -11.2 80 -11  1038.6  0.6  740  309           
15 15.12.17 150 (ЮВ) //  2100 м  слаб. снег  н/о 
[Ns]
-9.2 -11.7 82 -9  1038.2  -0.6  740  310    -6.5       
18 15.12.17 350 (С) н/о  слаб. снег  10/10 600 м 
[Ns]
-9.9 -12 85 -12  1038.1  -0.2  740  310    -6.5  0.0     
21 15.12.17 080 (В) н/о  слаб. снег  10/10 600 м 
[Ns]
-9.5 -11.6 85 -11  1037  -1  739  310           
00 16.12.17 030 (СВ) 1{06}  н/о  слаб. снег  10/10 600 м 
[Ns]
-9 -10.5 89 -9  1036.5  -0.3  739  309           
03 16.12.17 030 (СВ) 4000 м  в посл. час снег  10/10 600 м 
[Ns]
-8.4 -9.9 89 -10  1036.8  0.4  739  308  -10.4      равномерный
сухой снег
100% 
06 16.12.17 040 (СВ) 4000 м  слаб. снег  10/10 600 м 
[Ns]
-8 -9 93 -10  1036.9  0.1  739  308  -1    0.0     
09 16.12.17 280 (З) 4000 м  дымка{снег}  10/10 600 м 
[Ns]
-7.9 -9.7 87 -9  1036.4  -0.5  739  308           
12 16.12.17 020 (С) н/о  дымка{снег}  10/10 600 м 
[Ns]
-8.1 -9.5 90 -10  1037  0.6  739  308           
15 16.12.17 020 (С) н/о  дымка  10/10 600 м 
[Ns]
-8.4 -9.4 92 -11  1037.7  0.6  740  308    -7       
18 16.12.17 040 (СВ) н/о  дымка  10/10 600 м 
[Ns]
-9.1 -10.7 88 -12  1037.6  -0.2  740  309    -7  0.0     
Время (UTC), дата Ветер
(°,м/с) 
Видим.   Явления Облачность Т
(°С)
Тd
(°С)
f(%) Тe
(°С)
Pmin
(гПа)
dP
(гПа)
Po
(мм)
O2
(г/м3)
Тmin Tmax R s Состояние
почвы

Для получения пояснительной информации подведите курсор к названию столбца.

ПОГОДА в Баканасе - архив

Всё, что Вы хотите узнать о погоде в Баканасе - удобно и подробно!

Выберите нужную дату (начиная с 1 января 2015* года) и нажмите кнопку "Найти".
Будут отображены архивные сводки погоды по пункту Баканас, начиная с указанной даты.


Отображать данные в формате CSV (для использования в таблицах Excel)


Внимание! Наш архив погоды предназначен исключительно для личного некоммерческого использования в познавательных целях. Если Вам необходимы официальные справки о состоянии погоды (для производственных, юридических, коммерческих и т.п. целей), обращайтесь в органы Росгидромета.

*Примечание: данная дата относится к архиву по метеостанциям СССР (Россия, СНГ, Балтия).
Архив по метеостанциям Зарубежной Европы и Азии (кроме Китая) хранится 10 дней, по другим регионам земного шара (Китай, Африка, Америка, Австралия, Океания) - 1 день.

Баканас - район местоположения метеостанции


Название, широта, долгота, высота метеостанции:
Баканас 44.8°ш. 76.3°д. 396 м над ур. моря [Казахстан]

Дополнительная информация

В oтличие oт бoльшинства пoгoдных сайтoв мы публикуем пoдрoбную метеoинфoрмацию в детальнoм прoфессиoнальнoм фoрмате.

Характеристики температуры и влажнoсти вoздуха измеряются на высoте 2 м в тени вдали oт зданий и деревьев.
Скoрoсть ветра измеряется на высoте 10 м (на урoвне рoста челoвека скoрoсть ветра ниже в 1.5-2 раза). Если метеoстанция нахoдится в гoрoде или в лесу, тo скoрoсть ветра занижена на 2-4 м/с пo сравнению с oткрытым местoм. Скoрoсть ветра над акватoриями крупных рек и oзёр, а также на вершинах хoлмoв на 2-5 м/с выше, чем в oбычных услoвиях.
Атмoсфернoе давление в разных тoчках местнoсти мoжет значительнo oтличаться oт давления на метеoстанции, в зависимoсти oт услoвий рельефа (при пoдъёме на 10 м давление пoнижается примернo на 1 мм рт.ст.).